Theta_e
343 343 343 345 345 346 345 345 344 343 343 342 339 336 335 336 336 336 336 336 332 324 321 325 329 329 329 331 332 332 333 334 334 334 333 333 334 335 334 333 332 334 335 333 333 331 330 333 335 335 335 334 334 333 333 332 332 330 329 329 329 328 328 327 326 325 324 322 320 319 320 320 320 321 322 325 329 327 324 324 326 326 324 323 324
343 343 342 343 344 345 345 345 344 343 343 342 340 337 336 337 337 336 338 336 330 323 326 331 332 332 332 333 333 333 333 333 334 334 333 334 334 334 334 332 333 335 335 333 332 330 331 334 335 334 334 334 334 334 333 333 332 331 331 330 330 329 328 327 326 325 324 322 319 316 316 317 319 320 319 323 328 327 322 322 325 327 325 323 322
342 342 342 342 344 345 345 344 344 343 343 342 341 340 338 338 338 337 338 335 331 329 332 333 334 334 334 334 334 333 334 333 334 334 333 333 333 333 332 331 333 335 334 333 331 330 332 333 332 331 332 333 333 333 333 333 332 332 331 331 331 330 329 327 326 325 324 322 320 317 316 316 316 317 317 320 323 323 321 322 325 326 325 323 321
342 342 341 342 343 344 344 344 344 343 342 341 341 341 340 339 338 338 337 336 335 334 334 335 336 336 335 335 335 334 334 334 334 333 333 333 331 330 330 331 334 335 333 331 330 331 332 332 330 330 331 332 332 332 332 332 331 331 331 332 331 330 329 328 327 325 323 321 320 319 318 317 317 316 315 315 318 321 321 321 321 321 321 321 320
342 341 341 341 342 343 344 344 343 341 341 341 341 341 341 340 338 337 333 334 336 335 335 336 336 336 336 335 335 334 334 334 334 333 332 330 328 329 331 333 335 335 333 332 332 332 330 330 330 330 331 332 332 332 332 332 331 332 332 331 331 329 328 328 327 325 323 320 319 320 319 319 320 317 316 317 319 321 320 319 318 318 318 318 318
341 341 341 341 341 342 343 343 342 341 340 341 341 341 342 340 338 336 331 330 335 336 335 336 336 336 335 335 335 334 334 334 333 332 330 327 327 331 334 335 335 334 334 334 334 332 329 330 330 330 332 332 333 333 333 333 332 332 332 331 330 329 329 328 328 326 323 321 320 321 321 321 321 320 321 321 317 317 319 319 319 317 317 316 316
341 341 341 341 341 342 343 342 340 340 340 340 341 341 341 340 339 337 333 330 334 336 336 336 337 335 334 334 334 334 333 333 331 330 328 326 329 334 335 335 335 335 335 335 335 333 331 331 331 331 332 332 333 333 333 333 333 333 333 332 331 330 329 328 327 325 323 322 322 322 321 322 322 322 323 322 319 317 316 316 316 315 315 314 313
340 341 340 340 340 342 343 341 339 339 339 340 341 341 341 341 339 337 335 334 335 337 337 337 336 334 334 334 333 333 333 332 330 329 328 329 332 335 335 335 335 335 335 335 334 333 332 332 332 331 332 332 332 333 333 333 333 333 332 332 331 330 328 326 325 323 322 321 321 320 321 321 321 322 322 322 321 319 314 312 313 313 312 313 312
339 339 339 339 339 341 341 339 339 339 339 341 341 341 341 340 340 338 337 337 336 337 338 338 336 333 334 334 333 333 333 332 332 331 330 330 333 335 335 335 335 334 334 334 334 333 333 332 332 331 331 332 333 334 333 333 332 331 330 330 329 327 325 323 322 321 320 320 319 319 319 319 319 319 319 318 318 317 315 314 314 313 312 313 313
338 338 338 337 338 340 340 339 339 339 340 342 341 341 341 340 339 338 337 337 337 337 338 337 335 333 333 334 334 333 332 333 334 332 330 331 333 335 335 335 335 334 334 334 334 334 333 332 331 331 332 333 333 333 333 331 330 328 328 327 325 323 321 320 320 319 319 318 316 316 316 316 316 315 315 315 315 316 316 315 315 315 313 313 313
337 337 336 336 338 339 339 338 338 339 340 341 341 341 341 340 338 337 337 337 337 337 338 337 335 334 334 334 334 333 332 332 333 333 332 333 334 335 335 335 334 334 334 334 334 333 333 332 332 331 332 333 333 332 330 327 326 326 325 323 321 319 319 318 318 318 317 315 314 314 314 313 314 314 314 313 313 314 314 314 314 313 312 311 311
336 337 336 337 338 338 338 338 338 338 339 341 341 341 340 339 338 337 337 337 338 338 338 337 335 334 334 334 334 333 332 331 332 333 333 334 335 335 335 335 334 334 334 334 333 332 332 331 330 330 331 332 331 328 325 324 324 323 321 318 317 317 317 317 317 315 314 314 313 313 313 313 313 312 312 312 313 313 313 313 312 311 310 309 308
336 336 336 337 338 338 338 338 338 338 339 341 341 341 340 339 338 338 337 338 338 338 338 336 335 334 334 334 333 332 331 331 332 334 334 334 335 335 335 334 334 334 333 332 332 331 331 329 329 330 331 329 325 322 321 321 321 319 317 316 316 316 315 315 314 314 313 313 313 313 313 312 311 311 311 312 313 313 313 312 311 310 309 308 307
336 335 335 337 337 338 338 338 337 338 340 341 341 341 340 339 339 339 339 339 338 338 337 336 335 334 333 333 333 332 331 331 332 334 334 334 335 335 335 334 333 333 332 331 331 331 330 330 330 331 329 324 319 318 318 318 317 316 315 314 314 314 314 313 313 313 313 313 312 312 311 311 310 310 311 312 312 311 311 310 309 309 308 307 306
336 335 335 337 337 338 337 337 337 338 340 341 340 340 340 339 339 340 340 339 338 337 336 335 335 334 333 334 333 333 332 332 333 335 334 334 335 335 334 334 333 332 332 332 331 331 331 331 331 329 326 320 315 315 316 315 314 314 313 313 313 313 313 313 313 313 312 312 311 311 310 310 310 310 311 311 310 310 309 309 308 308 307 307 306
336 336 336 337 337 337 337 337 337 339 340 341 340 339 339 339 339 339 339 339 337 336 335 335 335 334 333 333 333 333 333 334 334 335 334 335 335 334 334 333 332 332 331 331 331 331 331 331 330 328 323 317 314 315 314 314 314 313 313 313 313 313 313 312 312 312 311 310 310 309 309 309 309 309 309 309 309 308 308 307 307 307 307 307 307
335 336 336 337 337 337 337 337 337 339 340 340 339 338 338 339 339 338 338 337 336 336 335 335 334 334 333 332 332 333 334 335 335 334 334 335 335 334 333 332 332 332 331 331 331 331 331 330 329 326 320 315 314 314 314 313 313 312 312 312 312 312 312 311 310 310 309 309 309 308 308 308 308 308 308 307 307 306 306 306 306 306 307 307 307
335 336 336 337 337 337 337 336 336 338 339 339 338 338 338 338 339 338 338 337 336 336 335 334 333 333 333 332 333 334 335 335 334 334 334 334 334 333 332 332 332 332 331 330 330 330 330 329 327 323 318 314 313 313 313 313 312 312 312 312 312 312 311 310 309 309 308 308 308 307 307 307 306 306 305 305 305 305 305 305 305 306 307 306 306
336 336 336 337 337 336 336 335 336 337 338 338 337 338 338 338 338 338 338 337 336 334 333 333 333 334 334 334 334 335 335 334 335 334 334 334 333 333 333 332 332 331 330 329 329 329 329 328 325 320 316 313 313 313 313 313 312 312 312 311 311 310 310 309 308 308 308 307 307 306 305 304 304 303 303 303 303 303 303 303 304 305 305 305 304
336 336 336 336 336 335 334 334 335 337 337 337 337 337 337 337 337 337 337 337 335 333 332 333 334 334 334 335 335 334 335 335 335 334 334 334 334 333 333 332 331 330 329 329 329 329 328 326 322 317 314 313 313 313 312 312 312 311 310 310 309 309 309 308 308 308 307 306 304 303 302 302 301 301 301 301 301 301 301 302 302 302 302 302 301
335 335 335 335 335 334 334 334 335 336 336 337 337 337 336 336 336 336 336 335 334 333 333 333 335 335 333 334 334 335 335 335 334 334 334 334 333 333 332 331 331 330 329 329 328 328 326 324 319 315 313 313 312 312 312 311 310 310 309 308 308 308 308 308 307 306 305 303 302 301 300 300 300 300 300 300 300 300 300 300 300 300 300 301 301
335 335 334 335 334 333 333 334 334 335 336 337 337 335 335 335 335 335 335 334 334 333 333 335 335 335 334 334 334 335 335 334 334 334 334 333 333 332 332 331 330 330 329 328 328 326 325 321 317 313 313 313 312 312 311 310 310 309 307 307 308 308 308 307 306 304 302 300 300 299 299 299 299 299 299 299 299 299 299 299 299 299 300 300 301
334 334 335 335 334 333 333 334 334 335 336 336 335 334 334 335 334 334 334 334 334 334 334 335 335 335 334 334 334 334 333 333 333 333 332 332 332 331 331 330 330 329 328 327 326 324 322 318 314 313 313 312 312 311 310 309 308 307 307 307 308 308 307 305 303 301 300 299 299 298 298 298 298 298 298 298 298 298 298 298 298 299 300 300 301
335 335 335 335 334 333 333 334 335 335 335 335 334 333 333 334 334 334 334 335 335 335 335 335 335 335 334 334 333 333 332 332 332 332 331 331 331 330 329 329 329 328 327 325 323 321 317 314 313 313 312 312 311 310 309 308 307 307 307 308 308 307 305 303 300 299 299 298 298 298 298 298 298 298 298 298 298 298 298 298 298 299 300 300 301
335 335 336 335 335 334 334 335 334 334 334 334 333 333 333 334 334 334 335 335 334 334 335 334 334 334 334 333 332 332 332 332 331 331 330 329 329 329 329 328 327 325 323 321 319 316 314 313 312 312 312 311 310 309 308 307 307 307 308 307 306 304 302 300 299 298 298 297 297 297 297 297 297 298 298 298 298 298 298 298 298 299 299 300 301
335 335 336 335 335 335 334 335 334 333 334 333 334 334 333 334 334 334 336 334 333 333 334 333 333 333 332 332 332 332 331 331 331 330 329 329 329 328 327 326 324 321 319 317 315 314 313 313 312 312 311 310 309 308 307 307 307 307 307 306 304 301 300 299 298 298 297 297 297 297 297 297 297 298 298 298 298 298 298 298 298 299 299 300 300
336 335 336 335 335 335 334 335 334 333 333 334 335 335 334 334 334 336 335 333 333 333 332 331 332 332 330 329 330 331 330 330 330 329 329 328 327 326 325 323 320 317 315 314 313 313 313 312 312 311 310 309 308 307 307 307 306 306 305 303 301 299 298 298 297 297 297 296 296 296 296 297 297 297 298 298 298 298 298 298 298 299 299 300 300
336 336 336 335 335 334 334 334 334 334 334 334 335 335 335 335 335 335 334 333 333 332 330 330 330 329 329 329 330 330 330 330 330 328 328 326 325 323 321 319 316 314 313 313 313 313 312 311 311 310 309 308 307 307 306 306 305 304 302 301 299 298 298 297 297 296 296 296 296 296 296 296 297 297 298 298 298 298 298 298 298 299 299 299 299
336 336 336 335 335 335 334 334 334 334 334 334 335 335 336 336 335 333 332 333 334 331 328 329 329 329 330 330 330 329 329 329 328 327 326 324 322 319 317 315 314 313 313 312 312 311 311 311 310 309 309 308 307 306 305 304 303 301 300 299 298 298 297 297 296 296 296 296 296 296 296 296 296 297 297 298 298 298 298 297 298 299 299 298 297
335 335 335 335 335 334 334 334 335 335 335 335 335 335 335 335 335 333 332 333 333 331 329 329 329 330 330 330 329 329 328 328 326 325 323 321 318 316 314 314 313 312 312 311 311 310 310 310 309 308 308 307 305 304 303 302 301 300 299 298 297 297 296 296 296 296 295 295 295 295 295 295 296 296 297 297 297 297 297 297 298 298 298 297 296
335 334 335 334 334 334 334 335 335 335 335 335 335 335 334 334 334 333 332 331 331 330 329 328 328 329 329 329 328 327 326 325 323 321 319 317 315 313 313 313 312 311 311 310 310 310 309 309 308 307 307 305 304 302 301 300 299 298 298 297 297 296 296 296 296 295 295 295 295 295 295 295 295 296 296 297 297 297 297 297 298 298 296 295 295
334 334 334 334 334 334 334 334 334 334 335 334 335 335 334 333 332 331 331 331 329 328 327 326 327 327 328 328 326 324 323 322 320 318 317 314 312 312 312 312 312 311 310 310 309 309 308 308 307 307 305 303 302 300 299 298 298 297 297 297 296 296 295 295 295 295 295 295 295 294 294 294 295 295 296 296 296 296 296 297 297 297 295 294 295
334 334 334 334 334 334 334 334 335 334 335 335 335 335 334 333 331 329 329 330 329 326 325 324 325 326 326 324 323 322 321 319 317 316 314 312 311 312 312 312 311 310 309 309 308 308 308 307 307 306 303 301 300 298 298 297 297 297 296 296 295 295 295 295 295 294 294 294 294 294 294 294 294 294 295 295 295 296 296 296 297 296 294 294 296
334 334 334 334 334 334 334 335 335 334 335 335 335 335 334 332 331 328 327 327 326 324 324 325 324 324 323 321 320 320 319 317 315 313 312 312 311 311 311 311 311 309 308 308 308 307 307 307 306 304 302 299 298 297 297 297 296 296 296 295 295 295 294 294 294 294 294 294 294 294 293 293 293 293 294 294 295 295 296 296 296 295 294 294 297
334 334 334 334 334 334 334 334 335 334 334 334 334 334 333 332 330 328 326 325 324 323 324 325 324 322 321 319 319 318 317 315 313 313 312 312 311 311 311 311 310 309 307 307 307 307 306 306 304 302 300 298 297 296 296 296 296 296 295 295 295 294 294 295 294 294 294 294 293 293 293 293 293 293 293 293 294 294 294 295 295 294 293 294 297
334 334 333 334 333 334 335 334 334 334 334 334 333 332 331 330 329 328 325 323 322 322 323 323 322 320 318 317 317 316 315 313 313 312 312 312 311 311 311 311 310 307 306 306 306 306 306 304 302 300 298 297 296 296 296 295 295 295 295 295 294 294 294 294 294 294 294 294 293 293 293 293 293 293 293 293 293 293 293 293 294 293 293 294 297
334 333 333 332 332 334 334 334 334 333 333 333 332 331 330 329 328 327 323 320 320 322 322 321 320 319 317 317 316 314 313 313 312 312 312 311 311 310 311 311 309 306 305 306 306 305 305 303 300 298 297 297 296 295 295 295 295 295 295 294 294 294 294 294 294 294 294 293 293 293 293 293 293 293 293 292 292 292 293 293 293 292 292 293 296
333 333 333 333 332 333 334 334 333 333 332 332 332 331 329 327 327 327 323 320 321 322 321 320 319 319 318 317 315 313 313 312 312 311 311 311 310 310 310 310 307 305 304 305 305 305 303 301 299 298 298 297 297 296 295 295 295 294 294 294 294 294 294 294 294 294 294 293 293 293 293 293 293 293 293 293 293 292 292 292 292 292 292 292 294
333 333 332 332 333 333 333 333 333 332 331 331 331 330 328 327 327 326 322 321 321 321 320 318 318 318 317 316 314 312 312 312 311 311 311 310 310 310 309 307 304 303 304 304 304 304 302 300 299 298 298 298 297 296 295 294 294 294 294 294 294 294 294 294 294 294 293 293 293 293 293 293 293 293 293 293 293 292 292 292 292 292 292 292 293
333 332 332 332 332 332 331 331 332 331 331 331 330 328 328 328 327 323 321 321 321 320 318 317 317 316 314 314 313 312 311 311 310 310 310 309 309 309 307 303 301 301 303 304 304 303 302 300 299 299 298 298 296 295 295 294 294 294 294 294 294 294 294 294 294 293 293 293 293 293 293 293 293 293 293 293 293 292 292 292 292 292 292 292 292
333 332 331 331 331 331 331 331 331 331 330 330 328 327 327 327 324 321 321 322 320 318 317 316 316 314 313 312 312 311 311 310 309 309 309 309 308 306 303 300 299 300 301 302 303 303 302 300 299 299 299 298 297 295 295 294 294 294 294 294 294 294 294 294 294 293 293 293 293 293 293 293 293 293 293 293 293 292 292 292 292 292 292 292 292
332 331 331 331 331 330 330 330 330 331 330 328 328 328 327 324 321 321 322 321 319 317 316 315 314 312 311 311 311 311 310 309 309 309 308 307 305 302 299 297 298 299 300 301 302 302 302 301 300 300 299 298 297 296 295 294 294 294 294 294 294 294 294 293 293 293 293 293 293 293 293 293 293 292 292 292 292 292 292 292 292 292 292 292 292
331 331 330 330 331 330 330 330 329 329 329 327 327 327 325 322 321 321 321 320 318 316 315 314 313 311 310 310 310 310 309 309 308 308 307 305 302 298 296 296 297 298 299 300 301 302 301 300 300 299 299 297 296 296 295 294 293 293 294 294 294 294 294 293 293 293 293 293 293 293 293 293 293 292 292 292 292 292 292 292 292 292 292 292 292
330 330 330 330 330 330 330 330 329 329 328 327 327 327 323 321 322 321 319 318 316 315 314 313 311 310 310 309 309 309 309 308 307 307 306 303 299 296 296 296 296 297 298 299 300 300 300 299 298 298 298 297 296 295 295 294 293 293 294 294 294 294 294 294 293 293 293 293 293 293 293 293 293 292 292 292 292 292 292 292 292 292 292 292 292
330 330 330 330 331 331 330 329 328 328 327 326 326 325 323 322 323 321 319 318 316 314 313 311 310 310 310 309 310 310 308 307 307 307 306 304 300 297 295 296 296 296 296 297 297 298 297 296 296 296 295 295 295 294 294 293 293 293 294 294 294 294 294 294 294 293 293 293 293 293 293 292 292 292 292 292 292 292 292 291 291 292 292 292 292
330 329 329 329 329 330 329 328 326 325 325 325 324 324 323 323 323 322 320 318 316 314 312 310 310 310 310 310 310 309 308 308 308 307 307 306 303 299 296 295 295 295 295 295 295 296 295 295 294 294 294 294 294 293 293 293 293 293 294 294 294 294 294 294 294 294 293 293 293 293 293 292 292 292 292 292 292 292 292 291 291 292 292 292 292
329 329 328 328 328 327 327 327 326 324 324 323 324 323 323 323 322 321 319 316 315 313 311 310 310 310 310 310 310 309 308 308 308 308 307 306 304 301 297 295 295 295 294 294 294 294 294 294 294 294 294 293 293 293 293 293 293 293 294 294 294 294 294 294 294 294 294 293 293 293 293 293 292 292 292 292 292 292 292 292 292 292 292 292 292
329 329 328 327 327 327 326 326 326 325 324 323 323 323 322 322 321 319 317 315 314 313 311 310 310 310 310 310 309 308 308 308 308 307 306 304 303 300 297 295 295 295 294 294 294 294 294 294 294 294 294 293 293 293 293 293 293 293 294 294 294 294 294 294 294 294 294 293 293 293 293 293 293 292 292 292 292 292 292 292 293 293 293 292 292
328 328 327 327 327 326 325 325 326 326 325 323 323 322 321 320 319 318 315 314 313 312 311 310 310 310 309 309 309 308 308 308 307 305 303 302 301 298 296 295 295 295 294 294 294 294 294 294 294 294 294 294 294 294 293 293 293 294 294 294 294 294 295 294 294 294 294 294 293 293 293 293 293 293 293 293 293 293 293 293 293 293 293 293 292
327 326 326 326 326 325 325 324 325 326 325 323 322 321 320 319 318 316 314 313 312 311 310 310 310 309 309 309 309 308 308 307 304 301 300 299 298 296 296 296 296 296 296 295 295 294 293 293 293 293 293 294 293 293 293 293 293 294 294 294 294 295 295 294 294 294 294 293 293 293 293 293 293 293 293 293 293 293 293 293 293 293 293 293 293
326 325 324 323 324 324 323 323 324 324 323 322 321 320 318 317 317 315 313 313 312 311 310 310 310 309 309 309 308 307 307 306 302 298 297 297 297 297 297 297 297 298 298 297 296 295 293 293 293 293 293 293 293 293 293 293 293 294 294 294 295 295 294 294 295 295 294 294 293 293 293 293 293 293 293 293 293 293 293 293 293 293 293 293 293
Wind_Speed
33 34 35 37 37 36 35 35 35 35 32 28 25 25 27 26 25 25 24 23 22 23 27 28 27 25 25 25 23 20 18 17 15 14 12 10 8 6 5 5 6 7 8 8 7 6 5 5 6 7 7 7 6 7 7 7 7 7 6 6 7 9 11 11 12 13 14 15 14 9 7 9 8 6 6 7 7 7 11 12 9 9 10 12 13
31 31 33 36 37 37 36 35 35 34 33 30 28 29 30 28 26 23 20 20 21 24 27 27 26 25 24 23 21 18 17 16 14 12 10 8 7 6 6 7 7 8 9 8 8 7 6 7 7 8 7 7 7 8 8 8 8 7 8 8 9 10 11 12 13 14 15 17 17 12 8 7 6 7 6 6 8 10 13 14 12 12 14 15 15
30 31 32 35 37 37 36 35 35 35 33 31 31 31 30 27 25 22 20 21 24 25 26 26 25 24 22 21 19 17 16 14 13 11 9 8 8 8 8 8 9 9 8 8 8 7 7 8 8 8 7 7 7 8 8 8 8 8 9 10 10 11 12 14 15 16 16 17 16 15 13 11 9 7 6 7 10 11 12 12 13 15 16 16 17
33 34 34 35 37 38 38 37 36 35 33 32 33 31 28 25 24 23 21 23 27 27 26 26 24 22 21 20 19 17 15 14 14 12 10 10 9 9 9 9 10 9 8 8 7 6 6 7 8 8 7 6 7 7 7 8 8 9 10 10 11 12 13 15 16 17 18 17 15 14 13 13 11 11 15 15 9 7 10 13 15 16 16 17 20
35 35 35 35 37 39 39 39 38 36 34 34 34 30 26 24 24 23 19 21 27 29 28 26 24 22 22 21 20 18 17 15 15 13 12 11 10 9 9 10 11 9 8 7 7 6 6 6 7 7 6 6 6 7 7 8 9 9 10 12 13 13 14 15 16 17 18 17 15 12 9 9 11 17 22 18 10 10 13 13 14 17 19 21 23
34 34 34 34 37 39 40 40 38 36 35 35 32 28 25 23 23 22 19 21 27 29 30 28 24 23 22 22 21 19 18 16 14 13 12 11 10 10 11 11 11 9 8 7 7 6 7 6 6 5 5 6 7 8 9 9 10 11 12 14 15 15 15 15 16 17 16 15 13 12 10 10 15 19 19 18 19 19 15 15 20 24 25 24 23
31 31 32 34 36 40 42 41 38 36 35 34 30 27 25 23 24 24 22 24 28 29 31 29 25 23 22 21 19 17 15 14 13 12 11 11 11 11 11 11 10 9 8 7 7 7 8 7 6 5 6 7 8 9 10 11 11 13 14 16 16 17 17 16 16 16 14 13 12 12 12 13 16 17 17 19 22 22 22 23 26 27 27 26 25
30 30 32 34 38 41 43 41 38 36 35 33 29 27 26 25 26 27 26 27 29 29 31 29 25 23 23 21 19 15 13 12 12 12 11 11 12 11 11 11 10 9 8 7 8 8 8 7 6 6 7 8 9 10 11 12 13 15 16 17 18 18 18 18 17 16 14 12 12 12 12 13 15 16 17 18 19 24 29 27 24 24 25 25 25
29 31 34 36 39 40 40 39 37 36 35 32 28 26 26 26 27 28 28 29 30 30 30 29 25 23 23 22 20 16 14 12 12 12 12 12 12 11 11 11 10 9 8 8 8 8 7 6 6 7 8 9 10 12 13 15 16 16 17 18 19 19 19 18 17 16 15 14 14 14 13 13 14 15 16 16 17 20 24 25 25 26 26 24 22
29 31 34 35 37 37 37 36 36 35 34 30 26 25 26 27 28 28 28 30 31 31 30 28 26 24 24 23 20 17 15 14 13 12 13 13 12 12 12 12 11 10 10 9 9 8 7 6 6 8 9 11 13 15 17 17 17 17 17 17 17 18 18 18 17 16 16 16 17 16 16 15 15 15 16 16 16 15 18 23 24 25 27 26 22
28 30 31 32 33 34 35 35 34 34 33 28 25 26 26 26 26 26 28 31 32 31 30 28 26 24 23 23 21 18 16 15 14 14 14 13 12 12 12 13 12 11 11 10 9 8 7 7 8 9 11 13 16 18 19 18 17 16 15 15 15 16 16 16 16 15 16 16 16 16 17 17 17 18 18 18 18 17 19 23 24 25 26 26 24
28 29 29 30 33 34 34 34 33 33 31 28 26 26 26 26 25 26 28 30 31 30 30 29 26 24 23 23 22 18 16 16 16 15 15 13 12 12 13 13 13 12 12 11 10 8 8 9 10 11 12 15 18 20 19 17 15 14 14 14 14 14 14 14 14 14 14 14 14 15 16 17 17 17 18 17 17 17 19 22 24 25 27 26 25
28 29 30 31 34 35 34 34 33 33 31 28 27 27 27 26 26 27 28 29 30 30 30 29 25 23 24 23 20 17 16 17 16 15 14 12 11 12 13 14 13 13 12 11 10 10 10 11 11 12 15 18 19 18 16 14 12 12 12 12 12 12 12 12 12 12 12 12 13 14 14 15 16 16 16 15 15 16 17 20 22 24 26 27 26
29 30 32 33 35 35 34 33 33 32 30 27 27 26 27 28 29 29 29 29 31 30 29 28 25 24 23 20 17 16 17 18 16 14 13 11 11 12 14 14 13 13 12 11 11 10 10 11 12 14 16 17 16 14 12 10 10 10 10 10 10 10 11 11 10 10 11 12 13 13 14 14 14 15 15 15 15 16 17 20 22 25 26 26 26
30 31 33 34 34 33 33 33 33 32 28 26 26 27 28 30 31 31 32 32 32 30 29 27 25 24 22 19 18 17 17 17 16 13 11 10 11 13 14 14 13 13 11 10 9 9 10 11 13 15 16 14 12 10 8 8 8 8 8 9 9 9 9 9 9 10 11 11 12 13 13 13 14 14 14 14 15 16 18 19 21 24 27 28 29
31 32 33 33 33 33 33 33 32 31 27 26 27 28 30 31 31 32 33 32 30 29 27 25 23 22 20 19 19 17 17 17 16 13 11 11 12 14 14 13 13 11 10 8 8 9 10 12 14 15 14 11 9 7 7 7 7 7 8 8 7 7 8 9 10 10 11 12 12 12 13 13 13 13 13 13 14 15 17 18 19 21 23 26 29
32 33 33 33 32 32 32 32 32 30 28 27 28 30 31 31 31 30 30 30 28 27 25 23 22 21 20 18 18 17 17 16 14 12 12 13 14 13 13 12 12 11 9 8 8 10 11 13 14 15 12 9 7 7 7 7 7 7 8 7 7 7 9 10 10 10 11 11 11 12 12 12 12 12 12 13 13 14 15 16 18 18 18 19 21
31 31 32 32 32 32 31 31 31 29 28 29 30 31 31 30 30 30 30 29 27 25 24 23 22 20 19 19 18 17 16 14 11 11 13 14 14 14 13 12 11 9 8 8 10 11 12 13 15 13 10 7 7 7 6 6 6 6 7 7 8 8 10 10 10 10 10 10 11 11 11 11 11 11 12 12 13 13 14 14 16 16 16 16 16
29 31 32 33 33 32 31 30 29 29 29 30 31 31 30 30 30 30 30 28 25 22 21 21 20 19 18 18 19 18 15 13 12 12 14 14 14 14 13 12 10 8 8 10 11 12 13 14 14 12 9 7 6 5 4 4 5 6 7 7 8 9 9 9 9 9 9 9 10 10 10 10 11 12 12 13 13 14 14 15 15 14 15 17 16
31 32 32 32 32 31 30 30 29 30 30 31 31 30 30 29 28 27 28 27 23 20 18 19 19 18 17 18 18 17 15 14 14 14 15 15 15 14 13 11 9 8 9 10 12 13 14 14 13 10 7 5 3 2 2 3 5 6 7 7 8 8 8 8 9 9 9 10 10 11 11 11 12 13 13 13 14 15 15 16 16 16 16 19 20
32 33 31 30 30 29 29 29 30 30 31 31 31 29 28 27 26 25 25 23 21 18 17 18 18 17 17 17 16 15 15 15 16 16 17 17 16 14 12 10 9 9 10 11 12 13 13 13 10 8 5 2 0 1 2 4 5 6 7 7 7 6 7 8 9 9 10 11 12 12 12 13 13 14 14 14 15 16 17 17 18 19 21 22 23
31 31 30 29 29 28 29 30 30 31 31 31 30 28 26 25 24 23 21 21 20 17 17 19 20 19 18 16 15 15 14 16 18 19 19 17 14 13 11 9 9 10 11 11 12 12 13 11 9 6 3 1 2 3 4 5 6 6 6 6 5 5 7 8 9 9 11 12 12 13 13 14 14 14 15 16 18 18 19 20 21 22 23 24 24
29 29 29 28 29 29 29 30 30 30 31 30 28 27 25 24 23 22 22 21 19 17 20 22 21 20 18 17 17 16 15 17 20 19 16 14 13 12 12 11 11 11 11 11 11 12 11 9 7 4 2 3 4 4 5 5 6 6 6 6 5 6 7 8 9 10 12 13 13 13 14 15 15 15 17 18 19 20 21 22 23 24 24 25 24
27 28 28 29 29 29 29 29 29 29 29 28 27 26 25 23 23 22 22 20 17 18 22 22 21 21 19 19 20 19 16 17 19 16 15 15 14 13 12 11 11 11 11 11 11 11 9 7 5 3 4 4 4 5 5 5 5 5 5 6 6 6 7 8 10 12 13 13 13 14 15 16 16 16 18 20 21 22 23 24 25 26 26 26 27
27 28 28 29 30 29 29 28 27 27 27 26 26 26 26 24 23 22 21 19 17 19 23 23 22 22 22 21 21 18 16 17 18 18 17 15 14 12 12 12 12 11 11 10 10 9 7 5 5 5 4 4 4 4 4 4 4 5 5 5 6 7 8 10 11 12 13 13 14 15 16 17 17 19 20 22 23 24 25 26 28 28 28 29 30
29 29 29 29 29 29 29 28 27 26 25 24 24 25 26 24 23 22 21 19 19 21 23 24 23 23 24 24 21 18 18 19 19 17 15 13 12 12 12 12 11 10 9 9 8 7 6 6 6 6 5 4 4 4 4 4 4 5 5 6 7 8 9 11 11 12 13 14 15 16 17 18 18 20 21 22 23 25 26 28 29 30 30 31 32
29 29 29 29 28 29 29 27 26 25 24 25 25 25 26 25 24 23 21 19 20 22 24 24 24 24 26 25 22 20 20 18 16 14 14 14 14 13 12 11 10 9 8 8 8 8 8 8 7 7 6 4 3 3 3 4 5 6 6 7 8 9 10 11 11 12 14 15 16 17 18 19 19 20 21 23 24 25 26 28 29 30 31 32 33
29 30 30 29 29 29 28 27 26 25 25 26 26 26 26 25 24 22 20 19 21 25 27 26 26 26 24 22 21 20 18 16 15 16 16 15 14 13 12 11 10 9 9 9 9 11 12 11 9 7 5 3 3 3 4 6 7 7 8 8 9 9 10 11 11 13 15 16 18 19 20 20 20 20 21 22 23 25 26 28 29 29 30 31 32
28 30 30 30 30 29 29 28 26 26 27 26 26 27 26 25 24 21 20 22 24 27 28 27 26 24 20 19 18 17 16 17 17 17 16 14 14 13 12 12 12 11 11 12 13 13 12 10 8 6 5 4 4 5 7 8 8 8 8 8 9 10 10 11 12 14 16 18 18 19 20 20 20 20 20 20 22 23 26 27 28 29 30 31 32
29 30 31 31 30 30 30 29 28 28 28 27 27 27 27 28 25 21 23 27 27 26 26 25 26 24 19 17 17 17 18 18 18 16 15 14 14 14 14 14 13 12 13 14 14 11 9 8 7 7 6 5 6 8 10 10 9 9 8 8 9 10 11 12 14 16 17 19 19 20 20 20 19 19 18 19 20 22 24 25 26 27 29 30 31
29 30 31 31 31 31 30 30 30 30 29 29 29 28 28 29 26 25 28 30 29 28 28 28 28 25 19 17 19 19 19 18 16 15 14 14 15 15 15 14 13 13 13 13 11 10 10 9 8 7 6 6 8 11 11 11 10 9 8 8 9 10 11 13 15 17 18 19 20 20 20 20 19 18 18 18 19 21 22 23 24 25 27 28 28
31 31 32 31 32 32 32 31 31 30 30 30 29 29 29 29 29 30 30 29 28 29 30 29 28 23 18 17 18 18 17 15 13 12 13 15 16 16 16 13 12 12 13 13 12 12 12 10 8 7 7 9 11 12 12 11 10 9 8 8 9 10 11 14 16 18 19 19 20 20 20 20 20 19 18 18 19 21 21 22 22 24 26 26 25
32 32 32 31 31 32 32 32 31 31 31 29 28 30 30 28 28 31 31 29 28 29 29 27 24 19 17 17 17 17 16 13 13 15 16 15 15 15 14 12 13 13 13 14 14 13 12 10 8 8 9 12 13 14 13 11 10 10 9 9 9 11 13 15 17 18 18 19 19 19 19 20 20 20 20 19 20 20 20 20 21 23 25 25 24
31 31 31 30 31 31 30 31 30 31 30 28 27 28 28 27 27 31 32 31 29 28 26 22 18 17 18 18 17 16 14 14 17 19 18 15 14 14 13 12 12 12 14 15 15 13 12 10 9 9 11 14 15 15 13 12 11 10 9 9 10 12 14 15 17 17 18 18 18 18 18 20 20 21 21 21 20 19 19 20 21 23 25 25 25
30 28 27 27 28 29 30 30 31 31 30 29 27 27 28 28 28 30 31 30 29 27 23 19 17 18 19 19 17 16 16 17 20 21 18 15 14 14 13 12 11 12 14 15 15 13 12 11 10 11 13 16 16 15 14 12 11 10 9 10 11 12 13 15 16 17 17 17 17 17 18 19 20 21 22 21 21 20 20 20 21 23 24 25 26
31 30 29 27 27 29 31 31 32 32 30 29 27 27 29 30 30 30 30 29 28 25 21 18 18 19 19 17 17 17 19 20 22 20 18 16 15 14 13 11 11 13 15 15 14 13 11 12 13 13 15 17 17 16 14 12 11 10 9 10 10 11 12 14 15 16 16 16 16 16 17 18 19 20 21 21 21 21 21 21 22 22 23 25 25
31 31 30 28 28 31 32 32 33 31 30 29 28 28 30 32 31 30 29 28 25 20 17 17 17 17 17 16 17 19 20 21 21 20 18 17 16 14 12 10 11 15 17 16 15 14 12 13 14 15 16 17 17 16 14 12 11 10 9 8 9 10 11 12 13 14 14 14 15 16 16 17 18 20 21 21 21 21 21 22 22 22 23 25 25
29 29 29 29 30 32 33 33 33 32 30 30 29 30 33 33 31 29 28 26 21 17 16 17 17 17 17 17 18 20 21 21 21 20 19 18 16 13 12 11 12 16 18 18 16 16 15 14 15 15 15 15 15 15 13 12 10 9 8 8 8 9 10 11 12 12 13 13 14 15 15 16 17 19 20 20 20 21 21 22 23 22 23 25 26
28 28 29 31 32 32 33 34 33 32 30 28 29 32 34 32 30 30 29 24 20 18 18 18 18 19 19 18 19 20 20 21 20 19 18 17 15 13 13 14 15 17 19 19 17 17 17 16 16 15 13 12 14 15 13 11 10 9 7 7 7 8 8 9 10 11 11 12 13 13 14 16 17 17 18 18 19 20 21 22 23 23 24 25 25
28 28 28 30 32 32 33 34 32 28 26 27 32 35 34 31 32 30 26 21 19 20 20 19 19 20 20 19 18 19 20 20 19 18 17 16 14 14 15 17 18 19 20 20 19 17 17 18 17 15 13 11 12 14 13 10 9 8 7 7 7 6 7 8 8 9 10 11 11 12 13 15 16 16 17 17 17 18 20 21 22 23 24 24 24
28 28 28 30 31 30 30 29 27 25 25 29 34 34 32 32 32 28 22 19 19 19 19 19 18 19 21 20 18 18 19 19 17 17 16 15 14 15 17 19 20 21 21 21 20 18 18 18 17 15 13 12 11 11 11 10 9 8 7 7 6 6 6 6 7 8 9 9 10 11 12 14 14 15 15 16 16 17 18 19 20 22 22 23 23
27 27 27 29 30 29 28 26 26 26 27 30 33 33 33 33 31 25 19 19 19 18 18 17 17 20 22 21 20 19 19 18 17 16 16 16 16 17 19 20 20 21 21 20 20 19 18 18 17 14 12 12 11 10 9 9 9 7 6 6 5 5 5 5 6 7 7 9 10 11 11 12 13 14 14 14 15 15 16 17 19 20 20 20 21
28 26 27 28 29 29 28 27 28 28 29 32 33 34 34 32 27 21 20 20 18 17 17 16 19 22 23 22 21 20 19 18 17 17 17 18 18 19 19 19 19 20 20 20 20 19 18 17 16 14 12 11 11 10 9 9 8 7 5 4 4 4 4 4 5 6 7 8 9 10 11 11 12 12 12 13 14 14 15 16 17 17 18 19 20
27 27 27 27 28 29 30 30 30 30 31 32 33 33 32 29 23 21 21 20 18 17 17 18 22 24 24 23 22 20 19 18 18 19 18 18 19 19 19 18 18 18 19 19 19 18 16 15 15 14 13 12 11 11 10 9 8 7 5 4 3 3 3 3 4 5 6 8 9 9 10 11 11 11 11 12 12 13 14 15 16 16 17 18 19
26 27 27 27 27 29 31 32 33 33 33 33 33 32 30 27 22 21 20 19 18 18 19 22 25 26 25 24 23 20 19 20 19 18 18 18 19 20 19 19 18 17 17 17 17 17 15 14 14 13 13 12 11 11 10 10 9 7 6 4 3 3 2 2 3 5 6 7 8 9 10 10 10 10 10 11 11 12 13 14 15 15 16 17 18
26 27 27 28 28 29 31 33 34 34 34 33 31 30 28 25 23 23 21 20 20 20 22 25 27 26 25 25 24 22 21 19 18 16 15 15 16 18 19 19 18 17 16 16 16 16 15 14 14 13 13 13 12 12 11 10 9 8 7 5 4 3 2 1 3 4 5 7 7 8 9 9 9 9 10 10 11 12 13 13 14 15 15 16 17
26 27 27 28 29 29 31 32 32 32 32 31 29 27 26 25 25 25 24 22 21 21 24 27 27 26 26 25 24 23 22 20 18 17 15 14 14 16 18 18 18 17 17 16 15 16 15 15 14 14 13 13 12 12 11 10 9 8 7 6 4 3 2 1 2 3 5 6 7 7 7 8 9 9 9 10 11 11 12 12 13 14 15 16 17
25 26 27 27 28 29 30 30 29 28 29 30 29 28 27 26 26 25 24 23 22 23 25 27 27 26 26 25 24 23 22 21 19 18 16 16 16 17 17 16 15 15 15 15 15 15 14 14 13 13 13 13 13 12 11 10 10 9 7 6 5 3 2 1 1 3 5 6 6 6 7 7 8 8 9 9 10 10 11 12 12 13 14 15 16
24 25 26 27 28 29 31 31 30 28 28 30 29 29 29 27 25 25 25 24 23 24 27 28 27 26 26 25 24 23 22 22 21 19 18 17 16 16 15 13 12 11 10 10 11 12 12 11 11 11 11 10 10 11 11 10 10 9 8 6 5 3 2 1 1 2 4 5 5 5 6 6 6 7 7 8 9 9 10 11 12 13 14 14 15
22 23 25 27 27 29 31 32 31 29 29 30 30 31 30 27 25 25 25 25 25 27 28 29 27 26 26 25 25 24 23 22 21 21 22 21 19 17 14 12 13 13 11 10 9 9 10 10 10 10 9 8 7 9 11 10 10 9 8 7 5 4 3 2 0 2 3 3 4 4 5 5 5 6 7 8 8 9 9 10 12 13 13 14 15
23 24 26 27 27 28 30 31 31 30 30 32 33 34 30 27 25 26 25 24 25 28 30 29 28 26 26 25 25 24 24 22 21 23 24 23 22 20 17 15 15 15 14 12 10 9 10 10 10 10 11 10 11 11 11 11 10 10 8 7 6 5 3 2 1 2 3 3 3 4 5 5 6 6 7 8 9 9 10 11 12 13 13 14 15
Wind_Direction
216 218 217 218 219 220 220 220 219 218 218 216 212 209 209 212 210 200 195 197 196 190 189 189 186 182 183 187 189 189 189 191 195 199 202 205 213 227 244 260 264 261 256 244 230 225 232 242 243 237 237 242 253 261 264 265 265 274 289 299 304 303 305 306 309 315 318 322 326 325 316 311 307 304 306 297 290 306 317 312 298 291 301 310 309
215 218 216 215 217 218 219 219 218 218 218 215 213 211 210 212 215 205 193 198 200 192 190 190 188 187 190 192 193 193 192 194 198 202 205 211 224 240 254 258 260 264 258 241 226 222 222 228 229 225 231 242 253 262 266 270 277 290 303 309 308 307 308 309 313 318 321 325 330 333 335 329 312 302 306 291 276 290 302 298 288 286 294 305 307
214 217 216 214 214 216 218 218 218 220 220 216 214 215 213 212 214 205 196 200 203 200 197 194 192 194 198 199 198 199 198 196 202 208 214 224 235 246 254 252 256 262 252 233 225 224 224 226 228 230 239 252 259 265 271 281 292 303 309 310 308 310 314 315 317 320 322 326 329 330 331 329 320 306 305 304 290 287 290 289 287 288 293 303 308
213 216 215 213 212 214 216 218 219 220 218 215 215 217 215 214 213 206 203 207 207 206 203 199 198 199 202 206 206 206 203 199 204 213 221 231 240 246 249 246 252 255 243 232 229 228 231 232 236 240 248 259 265 269 277 290 300 305 306 308 310 314 316 316 318 320 322 326 329 329 329 328 322 312 316 320 311 290 294 297 296 295 299 307 311
211 214 213 211 211 213 215 219 220 217 216 217 218 218 216 216 214 207 206 213 212 208 205 205 205 205 205 207 207 207 205 205 209 218 226 234 240 240 240 242 247 247 240 237 235 233 237 239 242 248 256 267 274 280 289 297 302 305 308 310 313 315 315 315 317 320 322 325 329 331 330 322 312 315 321 322 316 308 304 301 302 304 308 312 315
212 213 211 210 211 213 216 219 218 216 217 219 220 221 220 217 215 211 208 212 217 214 207 207 209 210 208 206 206 205 204 209 218 226 230 231 233 233 235 241 242 241 241 240 239 239 241 246 252 258 268 274 280 289 295 302 305 308 311 313 315 315 314 314 315 319 321 324 329 330 329 317 310 316 320 314 312 314 310 310 314 316 318 320 321
211 211 210 210 212 215 218 218 216 216 218 219 220 220 220 218 214 215 215 213 217 218 210 207 210 212 211 210 209 207 208 215 219 222 224 222 226 233 237 239 238 239 242 241 239 242 247 253 258 264 273 278 285 293 300 307 310 312 312 312 313 313 312 313 314 317 320 322 325 326 324 316 311 314 314 312 314 312 310 313 316 317 320 323 326
207 207 209 212 217 219 218 217 217 219 219 219 219 218 218 218 215 218 223 218 216 217 213 210 211 211 211 212 210 212 220 221 214 213 216 218 226 235 239 239 239 241 244 244 241 242 249 255 259 268 278 284 290 298 304 309 310 310 310 310 311 311 311 312 312 315 317 318 319 319 317 312 309 308 306 306 306 304 308 314 315 315 318 321 327
206 207 210 215 220 220 217 216 217 219 221 222 220 217 217 218 217 219 224 221 216 217 216 212 212 211 211 212 212 216 219 212 209 212 215 221 230 236 238 238 239 242 244 243 240 241 248 256 266 278 284 289 294 301 305 306 307 308 308 308 308 309 310 311 312 314 316 318 320 320 319 316 312 308 304 303 303 304 309 316 321 323 326 333 340
207 210 213 217 220 218 215 215 216 219 223 224 219 214 215 219 219 219 219 217 216 217 217 212 211 210 211 215 218 218 215 209 206 209 214 222 231 234 236 236 235 238 240 239 238 242 251 261 276 284 288 294 299 303 303 303 303 304 305 305 306 308 310 312 314 316 318 322 325 326 327 328 327 326 325 325 326 322 316 319 327 333 336 344 354
205 208 214 218 219 217 215 214 215 219 223 222 214 211 214 218 219 217 214 213 215 218 216 212 211 212 212 217 221 219 217 215 211 210 215 221 226 230 233 234 233 234 236 236 238 244 253 265 276 284 292 299 301 302 302 301 301 301 303 305 307 308 310 312 315 319 323 326 329 332 335 338 339 339 339 338 337 334 326 328 335 338 338 346 353
202 205 210 213 214 213 212 212 214 217 220 217 211 209 213 217 219 216 213 213 216 218 216 212 212 214 214 218 222 222 221 220 217 218 220 223 225 228 232 233 231 230 232 235 241 248 259 270 280 291 300 303 302 301 299 299 300 301 305 308 309 309 310 314 320 324 328 330 334 339 342 342 342 341 340 339 339 339 336 336 339 339 338 343 347
199 203 206 208 210 209 207 208 212 215 216 213 209 208 213 218 218 213 212 214 217 218 217 215 216 217 217 219 223 224 224 222 220 222 223 225 228 229 234 234 230 228 229 235 243 253 268 284 296 305 307 306 303 300 297 297 300 305 310 313 313 313 316 322 326 330 335 339 342 345 346 345 343 343 344 345 346 346 342 338 340 340 338 338 341
199 203 205 207 206 205 205 206 210 214 212 208 208 210 213 215 213 211 211 214 216 217 217 216 218 218 217 221 227 226 222 220 223 225 221 221 225 228 232 231 228 229 233 241 252 267 286 302 310 310 309 307 303 299 298 300 306 313 317 319 321 322 325 330 335 342 346 346 347 347 348 349 349 350 351 351 351 349 346 343 341 338 335 334 336
199 203 206 207 204 203 204 206 210 213 207 204 207 210 211 210 209 209 211 213 215 216 215 214 217 219 219 224 227 224 220 220 224 223 215 215 220 222 225 225 228 236 243 253 267 285 300 307 309 311 310 306 302 303 306 312 318 323 325 327 329 331 333 340 347 352 351 350 350 352 354 356 356 357 356 355 353 349 347 345 341 339 336 334 335
199 204 205 205 203 204 205 207 211 210 203 202 206 208 209 209 209 210 212 214 215 217 216 215 217 220 223 222 219 218 222 222 218 210 204 209 215 219 221 224 229 238 247 260 277 292 302 306 312 315 311 305 304 309 313 321 329 332 332 332 335 338 345 353 358 359 357 357 358 359 1 2 2 2 360 356 352 349 346 344 343 343 342 338 337
199 203 202 202 203 204 206 207 210 207 202 202 205 208 210 211 211 212 213 214 217 219 219 217 216 218 219 215 213 217 223 222 211 200 198 202 208 216 222 225 231 239 250 268 286 297 302 309 316 315 309 304 305 307 315 329 337 335 332 335 343 354 3 7 7 6 3 4 6 5 6 6 4 2 358 354 351 349 349 347 345 346 347 345 342
199 199 199 202 204 205 205 207 210 207 203 202 204 209 211 212 213 214 214 216 219 222 219 215 213 212 211 208 208 214 219 216 206 198 201 204 208 215 222 226 230 239 257 276 290 298 303 312 317 314 304 298 299 306 323 339 339 333 336 348 1 11 14 12 11 10 10 12 10 8 7 6 4 2 359 358 359 357 356 354 352 350 346 344 343
195 194 197 201 203 203 204 206 208 207 204 203 206 210 211 212 214 214 217 219 222 220 214 211 210 208 206 207 210 212 212 208 202 201 205 207 210 217 220 222 228 245 268 283 292 299 307 314 316 310 296 292 302 317 337 344 339 342 355 7 13 17 14 11 13 16 16 15 12 10 9 8 9 9 7 6 5 4 1 359 356 351 343 341 345
192 193 198 199 199 201 202 204 205 205 205 205 207 210 211 213 214 215 219 220 221 217 210 210 211 207 206 211 214 211 204 202 201 201 203 205 210 216 218 221 236 260 276 286 293 300 307 311 310 301 291 293 311 337 354 354 357 3 13 16 16 16 13 15 19 18 16 16 17 18 17 19 20 15 13 12 10 9 7 5 3 1 0 359 1
190 192 195 195 196 198 201 204 203 204 206 207 208 209 210 211 212 214 217 217 217 214 211 213 213 208 209 212 213 208 202 200 199 199 201 202 205 212 218 230 248 265 276 283 290 298 303 304 299 289 283 286 47 78 40 26 21 20 21 17 16 21 22 23 22 19 21 25 25 25 25 27 26 21 21 21 21 20 17 17 18 16 18 15 9
190 191 191 192 194 197 200 202 202 203 205 206 207 206 204 204 206 209 210 210 212 211 212 215 213 210 210 208 207 207 204 200 198 197 197 198 205 216 226 240 252 262 271 277 285 293 295 292 284 272 255 164 110 75 50 39 31 22 19 21 29 37 31 26 25 27 33 35 32 31 33 33 31 30 32 31 29 29 26 25 26 23 23 21 13
187 187 188 189 193 197 198 199 200 201 204 206 205 201 199 200 201 204 205 207 210 209 211 214 212 210 208 202 199 199 199 197 195 194 195 202 213 221 226 237 247 255 264 273 282 285 282 275 262 238 179 128 93 67 54 43 30 20 25 41 52 49 37 32 36 40 42 41 37 38 41 42 40 37 38 38 35 33 31 29 29 27 24 22 17
184 183 185 188 192 195 196 196 196 198 204 206 202 197 195 196 198 202 207 206 205 207 211 214 212 207 202 196 190 186 186 192 195 198 206 212 216 218 224 238 247 255 263 269 273 270 262 253 227 176 135 109 83 68 56 39 29 33 50 63 61 52 48 47 49 48 46 42 40 43 48 48 44 42 41 41 37 34 33 31 29 28 25 22 20
181 181 183 187 191 194 193 192 191 193 198 203 203 197 194 196 201 206 208 205 207 216 217 213 207 199 191 185 181 178 183 194 198 203 207 208 212 220 231 243 249 256 261 259 255 246 233 209 168 139 120 103 87 71 54 40 46 64 73 71 66 61 60 59 56 52 49 46 44 47 51 49 44 43 42 40 37 34 32 30 27 25 24 23 21
178 181 184 187 191 192 191 190 189 190 193 197 200 198 197 202 207 211 212 212 217 221 214 203 198 194 186 178 176 182 188 192 195 200 207 214 222 230 236 242 246 248 246 234 221 209 190 165 149 137 121 105 91 74 57 58 77 90 88 78 73 70 67 63 60 56 52 50 50 50 51 49 45 44 42 39 37 33 29 27 25 23 23 21 20
175 180 184 187 188 189 189 189 190 191 192 192 194 198 201 204 204 206 212 218 220 213 203 196 193 190 183 174 175 183 186 188 197 211 223 227 228 232 235 236 232 222 209 198 189 179 163 154 150 139 124 109 92 78 77 92 100 99 93 85 79 74 69 65 61 59 58 55 54 53 51 49 45 42 40 38 35 32 27 25 24 23 22 20 18
174 179 184 186 186 187 188 190 191 192 192 191 195 198 200 202 202 204 212 218 214 202 192 188 185 181 179 178 179 181 183 195 211 217 221 224 226 229 226 217 204 188 177 171 168 164 157 152 148 138 129 121 107 96 98 107 108 102 95 89 84 77 70 66 63 62 63 60 57 56 53 49 45 40 37 34 31 29 26 24 24 23 22 20 18
173 179 185 187 187 187 189 192 194 194 193 193 196 196 196 200 203 206 211 210 205 196 186 182 182 183 184 187 187 188 196 208 214 216 220 225 222 215 203 189 179 167 159 154 153 155 155 154 152 147 141 130 117 112 111 110 106 102 98 91 86 79 72 69 68 67 67 64 61 58 54 50 46 42 38 34 30 27 25 24 24 23 21 19 17
175 179 185 189 189 190 192 194 195 196 197 197 197 196 195 196 197 203 204 198 197 198 190 184 188 190 191 195 200 206 211 211 214 219 223 219 208 194 181 171 161 151 149 149 149 151 153 154 154 148 138 128 122 121 118 114 109 105 101 92 85 80 75 72 71 71 70 68 64 60 55 51 46 42 39 36 32 29 27 26 25 22 20 18 16
178 180 184 189 192 193 194 195 196 198 200 199 199 199 198 196 196 201 198 191 192 195 190 187 189 189 191 201 206 207 208 211 217 219 211 202 193 180 169 159 145 140 143 147 149 150 151 152 150 142 132 129 129 125 122 120 117 113 105 95 85 79 77 75 74 73 72 69 66 61 57 52 47 44 41 38 35 33 31 29 26 23 21 19 17
181 182 185 190 194 196 196 196 197 200 201 200 200 200 200 198 196 192 189 189 192 189 184 185 187 184 188 200 203 202 205 211 213 203 193 190 182 170 162 151 139 139 144 145 147 150 153 154 149 138 133 135 132 128 128 127 124 119 109 96 86 80 78 78 76 74 72 69 66 62 58 53 49 47 45 42 39 36 33 29 26 24 23 22 21
184 185 187 190 193 194 196 197 199 201 201 201 201 200 199 201 198 189 186 190 191 184 180 182 182 182 188 196 200 202 203 204 195 185 184 182 171 162 155 144 137 139 144 147 151 155 156 153 144 138 139 139 135 133 134 132 127 120 109 97 88 84 81 79 76 74 72 70 66 62 59 55 52 50 48 46 42 37 33 29 26 24 24 24 25
186 187 187 190 191 192 196 199 201 202 200 199 203 204 204 206 202 191 185 184 183 180 181 181 182 189 194 195 199 201 200 194 184 181 181 176 168 160 150 140 137 141 148 153 155 158 156 148 142 143 144 141 137 136 137 134 127 119 109 99 91 85 81 78 76 73 71 69 67 62 58 55 53 52 50 47 43 37 33 29 26 24 24 25 26
183 183 183 186 188 191 196 199 201 202 200 199 203 207 208 205 199 193 187 181 180 181 181 182 191 199 198 197 198 198 195 186 179 178 179 175 169 162 150 143 141 144 151 157 158 159 155 146 144 149 148 144 139 138 137 134 128 120 110 100 91 83 80 77 74 71 69 67 64 60 57 54 53 51 49 46 42 38 34 30 28 27 27 29 29
182 182 184 187 193 199 201 201 201 201 200 200 204 210 209 200 195 196 190 180 179 181 179 184 196 199 197 196 195 192 189 182 177 178 179 172 167 162 155 150 146 148 155 159 160 160 156 148 148 153 152 146 140 138 138 135 130 121 109 98 88 82 78 76 73 70 66 63 61 58 56 54 51 49 47 44 41 39 37 35 33 31 31 34 35
188 191 194 194 200 204 205 204 203 202 204 204 205 210 208 198 193 192 185 177 178 183 184 189 197 198 198 197 193 190 186 181 178 178 174 169 167 166 162 157 153 154 159 163 163 159 154 150 152 155 153 146 140 138 139 137 130 120 109 98 88 81 77 74 71 68 65 61 60 58 55 52 50 48 45 43 42 41 39 38 37 35 34 36 38
195 198 198 197 199 202 204 207 206 205 205 204 206 208 203 194 191 191 184 176 178 187 191 191 192 197 203 201 194 189 184 180 178 174 170 170 171 171 166 158 159 161 161 164 165 157 151 153 155 155 153 146 140 138 137 135 128 120 112 100 88 79 75 73 69 66 63 61 59 57 54 51 49 47 44 42 41 40 39 39 38 35 34 35 37
199 201 201 199 199 199 201 204 205 203 201 203 210 208 199 194 195 192 182 171 174 187 191 189 191 196 199 195 188 183 179 176 174 171 173 176 175 173 165 158 160 164 163 163 165 159 153 154 156 155 154 149 142 137 133 131 126 122 115 101 88 79 73 71 69 65 63 62 59 55 53 50 48 45 42 41 40 39 38 37 37 35 35 34 33
198 202 204 203 201 199 198 199 201 202 204 209 209 202 197 200 199 186 172 169 178 186 185 185 190 193 190 186 181 176 175 176 175 176 179 181 176 170 164 158 160 164 164 162 164 163 156 153 154 154 152 149 142 135 132 131 128 123 115 102 89 80 73 70 70 68 64 62 58 53 51 49 46 43 39 38 38 37 35 34 35 35 35 34 32
200 202 204 204 204 203 201 199 202 208 213 212 205 198 199 203 192 173 165 177 186 185 182 184 187 187 184 182 178 175 177 181 182 182 180 177 171 167 163 159 160 163 164 163 163 164 159 154 154 155 151 148 143 136 134 135 133 127 117 105 91 83 78 73 72 69 64 61 57 52 50 48 44 41 36 33 34 34 32 31 31 33 34 33 31
203 205 205 203 202 202 203 204 206 210 211 206 202 203 204 197 181 167 172 186 189 186 184 184 184 183 182 180 175 174 180 184 183 182 176 168 163 163 161 159 160 163 164 164 164 165 163 159 158 158 155 151 146 143 141 141 139 135 125 112 99 89 84 77 73 68 61 57 52 48 46 44 41 38 33 30 30 30 29 29 28 29 30 29 29
200 204 204 203 202 200 202 205 206 207 207 203 203 207 202 187 175 174 182 187 187 187 187 186 184 182 179 175 172 174 179 182 179 175 169 162 159 159 158 158 162 164 164 164 165 166 167 165 162 160 159 156 152 152 153 150 148 147 139 124 109 96 86 77 70 65 58 53 47 43 41 39 37 34 29 27 27 26 27 27 26 26 26 25 26
199 201 202 204 205 202 203 205 204 205 207 207 210 209 197 183 180 185 185 183 184 187 190 186 181 177 173 170 170 172 176 177 172 168 166 161 158 158 156 159 163 165 164 164 165 168 169 167 165 163 164 163 162 161 161 160 159 158 155 146 128 108 95 81 68 61 57 51 44 40 39 35 33 29 25 25 24 24 25 25 24 23 23 23 24
200 200 201 205 208 207 205 203 202 203 205 207 210 205 191 183 188 191 188 186 187 188 188 181 174 172 170 168 169 172 174 173 171 170 169 165 161 160 158 160 163 164 165 165 165 167 170 170 167 166 167 168 167 166 166 168 167 166 166 164 151 136 120 86 64 55 53 50 45 42 39 35 31 27 24 24 24 23 24 23 22 22 20 21 23
201 200 200 202 205 207 206 202 198 200 201 202 204 201 191 188 193 194 193 193 189 184 180 174 171 170 169 168 171 173 173 172 174 176 176 172 168 165 162 161 162 164 165 166 166 167 169 171 171 170 171 172 171 171 173 172 172 174 175 172 168 166 156 79 47 45 47 46 44 40 37 34 32 28 25 25 24 23 22 21 19 20 20 21 22
202 201 200 201 203 204 205 202 199 199 200 200 200 198 195 195 194 192 191 189 183 180 177 172 170 171 171 172 174 174 173 177 179 180 182 181 176 170 166 164 165 166 167 169 171 172 172 173 174 174 176 178 177 177 178 177 177 180 180 176 175 175 169 75 31 39 43 42 40 37 34 32 32 29 27 26 24 22 21 20 18 19 20 21 21
204 205 203 204 207 207 207 206 203 201 202 201 197 194 195 196 194 190 186 180 178 178 176 172 171 172 173 174 176 175 177 181 181 183 186 185 178 172 170 168 168 171 173 175 176 177 176 178 180 181 183 184 182 182 181 180 182 183 184 182 179 171 166 147 43 41 40 39 37 35 32 29 29 29 27 25 23 21 20 18 18 18 20 21 21
204 207 208 210 211 211 209 206 203 202 202 199 195 194 195 194 193 189 182 176 175 176 174 172 172 173 174 175 177 179 181 181 181 183 185 183 176 170 168 167 167 168 172 175 176 177 177 178 183 187 188 186 184 184 182 182 185 186 186 188 182 174 182 191 67 41 34 35 35 35 34 32 29 29 27 24 20 18 16 15 15 16 17 19 19
206 208 210 212 214 215 212 206 201 202 201 195 194 197 194 191 192 189 181 176 175 174 174 174 173 173 176 178 179 181 181 181 181 180 178 176 172 169 168 166 160 153 148 149 155 167 175 178 179 182 180 177 182 187 186 186 187 187 186 188 190 197 210 209 113 44 35 37 42 42 41 38 32 27 25 21 16 13 11 10 11 12 13 14 15
209 208 206 207 210 212 211 205 202 202 197 193 196 197 191 188 190 188 181 180 179 176 176 176 175 176 179 180 181 180 180 181 180 177 175 174 171 169 167 162 153 146 140 138 139 148 165 174 176 177 177 178 181 185 187 188 187 185 184 186 198 210 209 187 135 69 55 55 55 52 47 42 34 26 21 17 12 10 8 7 7 9 9 9 10